Location: T. Spence Memorial Observatory
(32.7356°N, 82.2098°W)
Time: 18:04:35
(UTC-05:00)

Daily predictions for brighter satellites

Satellite Brightness Start Highest point End
(mag) Time Altitude Azimuth Time Altitude Azimuth Time Altitude Azimuth
Cosmos 1844 Rocket 3.8 17:43:05 10° SW 17:48:30 47° WNW 17:53:56 10° N
Cosmos 468 Rocket 4.2 17:44:21 10° N 17:49:22 49° ENE 17:54:19 10° SE
ERBS 4.2 17:48:57 10° N 17:50:54 14° NE 17:52:52 10° ENE
COSMOS 2406 3.2 17:45:55 10° NNW 17:51:38 66° ENE 17:57:17 10° SSE
COSMOS 2455 3.1 17:46:11 10° SSW 17:52:10 75° WNW 17:58:12 10° NNE
CZ-2C R/B 3.8 17:49:34 10° NNE 17:54:00 59° E 17:58:29 10° S
Tsikada Rocket 4.0 17:49:05 10° N 17:55:15 71° E 18:01:23 10° SSE
Timation 1 Rocket 4.4 17:50:27 10° SSW 17:56:26 88° ESE 18:02:28 10° NNE
YAOGAN 1 3.1 17:56:49 10° SE 18:00:44 35° ENE 18:04:41 10° N
COSMO-SKYMED 1 3.1 17:59:31 10° NNE 18:03:33 37° E 18:07:33 10° SSE
CZ-4 R/B 1.3 18:00:56 10° SSE 18:04:45 57° ENE 18:08:33 10° N
CSL-04 Debris 4.2 18:00:08 10° SSE 18:05:34 89° WSW 18:11:01 10° NNW
Meteor 1-26 Rocket 4.2 18:01:58 10° S 18:07:36 89° W 18:13:10 10° N
Centaur D AC-28 3.2 18:05:45 10° WSW 18:09:36 51° SSE 18:21:43 11° E
Cosmos 1763 Rocket 3.7 18:06:14 10° N 18:11:11 44° ENE 18:16:04 10° SE
USA 116 3.9 18:08:06 10° N 18:12:33 85° WNW 18:16:25 10° SSW
Cosmos 2297 4.4 18:08:16 10° SSE 18:13:20 35° ESE 18:18:28 10° NE
Cosmos 2346 Rocket 4.4 18:08:05 10° N 18:14:13 72° E 18:20:24 10° SSE
ALOS 3.3 18:11:34 10° SE 18:15:18 24° ENE 18:19:04 10° NNE
Cosmos 1814 Rocket 4.0 18:14:53 10° N 18:20:12 63° ENE 18:25:29 10° SSE
Cosmos 2278 Rocket 2.4 18:14:36 10° SSW 18:20:16 75° WNW 18:25:57 10° NNE
Cosmos 1833 Rocket 3.9 18:16:45 10° NNE 18:20:46 20° ENE 18:23:09 15° E
Cosmos 1503 Rocket 4.4 18:16:33 10° S 18:21:31 42° ESE 18:26:27 10° NNE
Cosmos 1703 Rocket 3.6 18:17:54 10° S 18:22:18 60° E 18:26:42 10° NNE
SMAP 3.8 18:20:48 10° S 18:25:21 58° W 18:29:56 10° NNW
SL-27 R/B 3.7 18:22:58 10° NNE 18:25:00 20° NE 18:25:00 20° NE
Centaur D AC-29 3.2 18:19:22 10° W 18:26:29 32° SSW 18:29:45 10° SE
Ariane Rocket 4.0 18:23:57 10° S 18:28:52 50° W 18:33:49 10° NNW
Cosmos 1464 Rocket 4.1 18:23:48 10° SSE 18:29:37 48° E 18:35:28 10° NNE
Cosmos 1484 Rocket 4.4 18:28:53 10° SSW 18:32:25 37° W 18:36:02 10° NNW
Cosmos 1633 3.0 18:29:53 10° NNE 18:33:19 38° E 18:36:45 10° SSE
Okean 2 Rocket 4.1 18:31:13 10° NNE 18:34:58 25° ENE 18:38:42 10° SE
Cosmos 1441 Rocket 4.3 18:35:47 10° SSE 18:38:45 26° ESE 18:38:45 26° ESE
Cosmos 1606 2.6 18:36:38 10° S 18:40:24 89° SE 18:44:12 10° N
USA 234 3.6 18:36:48 10° NE 18:43:08 61° NW 18:49:32 10° WSW
Cosmos 540 Rocket 4.1 18:38:57 10° N 18:43:35 32° ENE 18:46:03 21° ESE
Cosmos 841 Rocket 3.4 18:39:40 10° NNW 18:44:56 71° ENE 18:50:09 10° SSE
Meteor 2-6 Rocket 4.0 18:42:00 10° S 18:47:20 68° E 18:52:47 10° NNE
EO 1 Del DPAF 3.8 18:43:37 10° N 18:47:22 57° WNW 18:51:06 10° SSW
Cosmos 1782 3.0 18:44:12 10° S 18:48:13 74° W 18:52:15 10° N
Atlas 2A Centaur Rocket 3.7 18:30:48 10° WSW 18:50:48 54° S 18:53:42 25° ESE
SKYMED 2 4.3 18:47:20 10° N 18:51:35 54° WNW 18:55:48 10° SSW
Cosmos 1908 Rocket 3.9 18:48:14 10° NNW 18:52:32 64° W 18:56:47 10° S
SPOT 3 Rocket 3.4 18:47:41 10° SSE 18:52:53 75° ENE 18:58:06 10° N
BREEZE-M DEB (TANK) 4.3 18:55:01 10° WNW 18:56:30 16° NNW 18:56:41 16° NNW
Cosmos 1354 Rocket 4.1 18:53:29 10° SSW 18:58:46 81° WNW 19:03:32 13° NNE
Sich 1 Rocket 4.0 18:55:38 10° NNW 19:00:01 65° W 19:04:26 10° S
Meteor 1-20 Rocket 4.4 18:54:55 10° NNW 19:00:26 69° W 19:05:51 10° S
NOAA 12 4.0 18:57:13 10° SSE 19:02:32 81° ENE 19:07:52 10° N
CZ-4C R/B 4.1 18:57:42 10° N 19:02:17 21° NE 19:02:17 21° NE
FengYun 1-2 T 4.5 18:59:29 10° SE 19:04:37 42° ENE 19:09:47 10° N
Cosmos 2082 Rocket 2.4 18:59:21 10° N 19:04:48 46° ENE 19:05:55 41° E
Cosmos 405 Rocket 2.6 19:05:47 10° S 19:09:38 88° W 19:10:02 70° N
Meteor 1-27 Rocket 3.7 19:05:21 10° S 19:11:10 70° E 19:15:39 18° NNE
GPS 2-05 Rocket1 3.7 19:08:09 10° WSW 19:10:32 41° SSW 19:10:32 41° SSW
OAO 3 Copernicus 4.2 19:18:01 10° WNW 19:23:06 74° N 19:23:16 73° NNE
USA 229 DEB 4.1 19:19:20 10° S 19:24:52 41° SE 19:24:52 41° SE
USA 229 4.1 19:19:27 10° S 19:24:55 40° SE 19:24:55 40° SE
ERBS 3.9 19:24:26 10° NW 19:27:00 34° W 19:27:00 34° W
Thor Agena Rocket 3.5 19:30:42 49° N 19:32:05 78° WNW 19:37:12 10° SSW
OAO 3 Rocket 3.7 19:33:32 10° WSW 19:37:33 53° SSW 19:37:33 53° SSW
Nadezhda 4 Rocket 4.0 19:44:51 10° N 19:54:11 30° S 19:57:05 10° S
ALOS 4.3 19:48:43 10° SSW 19:52:35 26° W 19:56:29 10° NW
Meteor 1-11 Rocket 3.9 19:47:33 10° NNW 19:58:07 15° S 19:59:02 10° S
Cosmos 1833 Rocket 3.5 19:59:32 10° NNW 20:04:54 48° WSW 20:05:02 48° WSW
CZ-4C R/B 4.5 20:44:56 10° NNW 20:47:31 25° NNW 20:47:31 25° NNW
